Tracking 28356 objects as of 8-Dec-2023
HD Live streaming from Space Station
objects crossing your sky now

ATLAS 5 CENTAUR DEB

Track ATLAS 5 CENTAUR DEB now!


NORAD ID: 49348
Int'l Code: 2018-079EZ
Perigee: 8,416.9 km
Apogee: 31,723.7 km
Inclination: 12.2 °
Period: 713.2 minutes
Semi major axis: 26441 km
RCS: Unknown
Launch date: October 17, 2018
Source: United States (US)
Launch site: AIR FORCE EASTERN TEST RANGE (AFETR)

Note: This is SATELLITE DEBRIS
Your satellite tracking list
Your tracking list is empty




NASA's NSSDC Master Catalog

Two Line Element Set (TLE):
1 49348U 18079EZ  23333.18999217 -.00000103  00000-0  00000+0 0  9997
2 49348  12.1897  95.1073 4407276 210.0540 114.9775  2.01919550 16581
Source of the keplerian elements: AFSPC